Ambrogiana, Italy

2:04 PM CET on December 12, 2017 (GMT +0100)
Ambrogiana

Weather History for 16170 - November, 2013

Change the Weather History Date:

Wednesday, November 20, 2013

  Actual Average Record
Temperature  
Mean Temperature 52 °F -  
Max Temperature 57 °F 54 °F - ()
Min Temperature 46 °F 38 °F - ()
Degree Days  
Heating Degree Days 14    
Growing Degree Days 2 (Base 50)    
Moisture  
Dew Point 46 °F    
Average Humidity 85    
Maximum Humidity 100    
Minimum Humidity 58    
Precipitation  
Precipitation 0.00 in 0.13 in - ()
Sea Level Pressure  
Sea Level Pressure 29.62 in    
Wind  
Wind Speed 3 mph ()    
Max Wind Speed 16 mph    
Max Gust Speed 26 mph    
Visibility 6.1 miles    
Events Rain    
T = Trace of Precipitation, MM = Missing Value Source: Averaged Metar Reports

Daily Weather History Graph

Daily Weather History Graph

Search for Another Location

Airport or City:

Trip Planner

Search our weather history database for the weather conditions in past years. The results will help you decide how hot, cold, wet, or windy it might be!

Date:

Astronomy

Nov. 20, 2013 Rise Set
Actual Time 7:16 AM CET 4:45 PM CET
Civil Twilight 6:44 AM CET 5:16 PM CET
Nautical Twilight 6:09 AM CET 5:51 PM CET
Astronomical Twilight 5:35 AM CET 6:25 PM CET
Moon 7:13 PM CET (11/20) 9:29 AM CET (11/20)
Length of Visible Light 10h 32m
Length of Day
9h 29m
Waning Gibbous, 93% of the Moon is Illuminated
Nov 20
Waning Gibbous
Nov 25
Last Quarter
Dec 3
New
Dec 9
First Quarter
Dec 17
Full

Hourly Weather History & Observations

Time (CET) Temp. Dew Point Humidity Pressure Visibility Wind Dir Wind Speed Gust Speed Precip Events Conditions
12:20 AM 48.2 °F 46.4 °F 93% 29.56 in - Variable 2.3 mph - N/A   Clear
12:50 AM 48.2 °F 46.4 °F 93% 29.56 in 6.2 mi Variable 2.3 mph - N/A   Partly Cloudy
1:20 AM 48.2 °F 46.4 °F 93% 29.53 in 6.2 mi Variable 2.3 mph - N/A   Partly Cloudy
1:50 AM 48.2 °F 46.4 °F 93% 29.53 in 6.2 mi Variable 2.3 mph - N/A   Partly Cloudy
2:20 AM 48.2 °F 46.4 °F 93% 29.53 in 6.2 mi Variable 2.3 mph - N/A   Partly Cloudy
2:50 AM 46.4 °F 44.6 °F 93% 29.53 in 6.2 mi Variable 1.2 mph - N/A   Partly Cloudy
3:20 AM 46.4 °F 46.4 °F 100% 29.53 in 6.2 mi SE 2.3 mph - N/A   Partly Cloudy
3:50 AM 46.4 °F 46.4 °F 100% 29.53 in 6.2 mi Variable 2.3 mph - N/A   Mostly Cloudy
4:20 AM 48.2 °F 48.2 °F 100% 29.56 in 6.2 mi WSW 1.2 mph - N/A   Mostly Cloudy
4:50 AM 48.2 °F 46.4 °F 93% 29.56 in 6.2 mi Variable 1.2 mph - N/A   Mostly Cloudy
5:20 AM 48.2 °F 46.4 °F 93% 29.56 in 6.2 mi Variable 1.2 mph - N/A   Mostly Cloudy
5:50 AM 46.4 °F 44.6 °F 93% 29.56 in 6.2 mi ENE 1.2 mph - N/A   Mostly Cloudy
6:20 AM 46.4 °F 46.4 °F 100% 29.59 in 6.2 mi Variable 1.2 mph - N/A   Scattered Clouds
6:50 AM 46.4 °F 46.4 °F 100% 29.59 in 6.2 mi Variable 1.2 mph - N/A   Scattered Clouds
7:20 AM 48.2 °F 46.4 °F 93% 29.59 in 6.2 mi North 1.2 mph - N/A   Scattered Clouds
7:50 AM 46.4 °F 46.4 °F 100% 29.59 in 6.2 mi Variable 1.2 mph - N/A   Partly Cloudy
8:20 AM 48.2 °F 48.2 °F 100% 29.59 in 6.2 mi Variable 1.2 mph - N/A   Partly Cloudy
8:50 AM 48.2 °F 48.2 °F 100% 29.62 in 6.2 mi Variable 2.3 mph - N/A   Mostly Cloudy
9:20 AM 50.0 °F 50.0 °F 100% 29.59 in 6.2 mi Variable 1.2 mph - N/A   Mostly Cloudy
9:50 AM 51.8 °F 50.0 °F 94% 29.62 in 6.2 mi Calm Calm - N/A   Mostly Cloudy
10:20 AM 51.8 °F 50.0 °F 94% 29.62 in 3.1 mi SW 3.5 mph - N/A Rain Rain
10:50 AM 51.8 °F 50.0 °F 94% 29.65 in 6.2 mi Variable 1.2 mph - N/A   Mostly Cloudy
11:20 AM 51.8 °F 50.0 °F 94% 29.65 in 6.2 mi Variable 2.3 mph - N/A   Mostly Cloudy
11:50 AM 53.6 °F 51.8 °F 94% 29.62 in 6.2 mi East 3.5 mph - N/A   Mostly Cloudy
12:20 PM 55.4 °F 51.8 °F 88% 29.62 in 6.2 mi Variable 2.3 mph - N/A   Mostly Cloudy
12:50 PM 57.2 °F 51.8 °F 82% 29.62 in 6.2 mi SSW 4.6 mph - N/A   Mostly Cloudy
1:20 PM 57.2 °F 51.8 °F 82% 29.62 in 6.2 mi SSW 8.1 mph - N/A   Mostly Cloudy
1:50 PM 57.2 °F 48.2 °F 72% 29.62 in 6.2 mi SW 11.5 mph - N/A   Mostly Cloudy
2:20 PM 57.2 °F 46.4 °F 67% 29.65 in 6.2 mi WSW 15.0 mph - N/A   Scattered Clouds
2:50 PM 57.2 °F 44.6 °F 63% 29.65 in 6.2 mi SW 13.8 mph 26.5 mph N/A   Scattered Clouds
3:20 PM 55.4 °F 42.8 °F 63% 29.65 in 6.2 mi SW 16.1 mph - N/A   Mostly Cloudy
3:50 PM 55.4 °F 41.0 °F 58% 29.65 in 6.2 mi SW 12.7 mph - N/A   Scattered Clouds
4:20 PM 53.6 °F 42.8 °F 67% 29.68 in 6.2 mi SSW 9.2 mph - N/A   Scattered Clouds
4:50 PM 53.6 °F 42.8 °F 67% 29.68 in 6.2 mi SSW 9.2 mph - N/A   Partly Cloudy
5:20 PM 51.8 °F 42.8 °F 71% 29.68 in 6.2 mi SSW 6.9 mph - N/A   Partly Cloudy
5:50 PM 51.8 °F 42.8 °F 71% 29.68 in 6.2 mi SSW 6.9 mph - N/A   Partly Cloudy
6:20 PM 51.8 °F 42.8 °F 71% 29.68 in 6.2 mi SSW 9.2 mph - N/A   Partly Cloudy
6:50 PM 50.0 °F 41.0 °F 71% 29.68 in - South 4.6 mph - N/A   Clear
7:20 PM 50.0 °F 41.0 °F 71% 29.68 in - South 5.8 mph - N/A   Clear
7:50 PM 50.0 °F 41.0 °F 71% 29.68 in 6.2 mi SSW 5.8 mph - N/A   Partly Cloudy
8:20 PM 50.0 °F 41.0 °F 71% 29.68 in 6.2 mi South 3.5 mph - N/A   Partly Cloudy
9:50 PM 48.2 °F 42.8 °F 82% 29.68 in 6.2 mi SE 5.8 mph - N/A   Scattered Clouds
10:50 PM 50.0 °F 41.0 °F 71% 29.65 in 6.2 mi SSE 4.6 mph - N/A   Mostly Cloudy
11:20 PM 48.2 °F 42.8 °F 82% 29.65 in 6.2 mi ENE 3.5 mph - N/A   Mostly Cloudy
11:50 PM 50.0 °F 42.8 °F 76% 29.65 in 6.2 mi SE 5.8 mph - N/A   Mostly Cloudy